TimeCST,TemperatureF,Dew PointF,Humidity,Sea Level PressureIn,VisibilityMPH,Wind Direction,Wind SpeedMPH,Gust SpeedMPH,PrecipitationIn,Events,Conditions,WindDirDegrees,DateUTC
12:15 AM,49.1,23.0,36,29.95,10.0,NW,12.7,-,N/A,,Clear,320,2013-02-26 06:15:00
12:35 AM,47.7,23.0,38,29.95,10.0,NW,11.5,-,N/A,,Clear,320,2013-02-26 06:35:00
12:55 AM,47.7,23.5,39,29.95,10.0,NW,9.2,-,N/A,,Clear,320,2013-02-26 06:55:00
1:15 AM,47.7,23.9,39,29.95,10.0,NW,9.2,-,N/A,,Clear,310,2013-02-26 07:15:00
1:35 AM,47.5,24.8,41,29.95,10.0,NW,9.2,-,N/A,,Clear,320,2013-02-26 07:35:00
1:55 AM,45.1,23.2,42,29.96,10.0,WNW,8.1,-,N/A,,Clear,300,2013-02-26 07:55:00
2:15 AM,45.1,23.9,43,29.95,10.0,NW,9.2,-,N/A,,Clear,310,2013-02-26 08:15:00
2:35 AM,44.4,23.9,44,29.94,10.0,NNW,10.4,-,N/A,,Clear,330,2013-02-26 08:35:00
2:55 AM,42.3,23.0,47,29.93,10.0,NNW,8.1,-,N/A,,Clear,330,2013-02-26 08:55:00
3:15 AM,41.7,23.0,47,29.94,10.0,West,6.9,-,N/A,,Clear,260,2013-02-26 09:15:00
3:35 AM,41.4,23.4,49,29.93,10.0,WNW,6.9,-,N/A,,Clear,290,2013-02-26 09:35:00
3:55 AM,40.6,23.4,50,29.93,10.0,WNW,5.8,-,N/A,,Clear,300,2013-02-26 09:55:00
4:15 AM,40.1,23.5,52,29.92,10.0,NW,4.6,-,N/A,,Clear,310,2013-02-26 10:15:00
4:35 AM,40.1,23.7,52,29.92,10.0,WSW,4.6,-,N/A,,Clear,250,2013-02-26 10:35:00
4:55 AM,38.3,23.0,54,29.93,10.0,WSW,5.8,-,N/A,,Clear,250,2013-02-26 10:55:00
5:15 AM,37.8,22.6,54,29.94,10.0,West,5.8,-,N/A,,Clear,270,2013-02-26 11:15:00
5:35 AM,37.6,22.8,55,29.95,10.0,West,5.8,-,N/A,,Clear,260,2013-02-26 11:35:00
5:55 AM,37.9,22.5,54,29.95,10.0,WNW,5.8,-,N/A,,Clear,290,2013-02-26 11:55:00
6:15 AM,37.6,22.8,55,29.94,10.0,WNW,9.2,-,N/A,,Clear,300,2013-02-26 12:15:00
6:35 AM,35.8,21.9,57,29.95,10.0,NW,6.9,-,N/A,,Clear,310,2013-02-26 12:35:00
6:55 AM,35.1,21.9,59,29.96,10.0,NW,5.8,-,N/A,,Clear,320,2013-02-26 12:55:00
7:15 AM,35.1,22.8,61,29.97,10.0,NNW,4.6,-,N/A,,Clear,330,2013-02-26 13:15:00
7:35 AM,35.1,21.9,59,29.97,10.0,NW,3.5,-,N/A,,Clear,320,2013-02-26 13:35:00
7:55 AM,37.6,22.8,55,29.98,10.0,Calm,Calm,-,N/A,,Clear,0,2013-02-26 13:55:00
8:15 AM,39.9,23.7,52,29.98,10.0,Calm,Calm,-,N/A,,Clear,0,2013-02-26 14:15:00
8:35 AM,42.1,23.0,47,29.97,10.0,North,4.6,-,N/A,,Clear,360,2013-02-26 14:35:00
8:55 AM,47.3,25.0,42,29.99,10.0,North,8.1,-,N/A,,Clear,360,2013-02-26 14:55:00
9:15 AM,47.7,24.4,40,29.99,10.0,NNW,6.9,-,N/A,,Clear,340,2013-02-26 15:15:00
9:35 AM,47.7,23.2,38,30.00,10.0,North,4.6,-,N/A,,Clear,350,2013-02-26 15:35:00
9:55 AM,50.2,24.3,36,30.00,10.0,North,4.6,-,N/A,,Clear,350,2013-02-26 15:55:00
10:15 AM,52.5,25.0,34,29.99,10.0,North,5.8,-,N/A,,Clear,350,2013-02-26 16:15:00
10:35 AM,52.7,23.5,32,29.99,10.0,Calm,Calm,-,N/A,,Clear,0,2013-02-26 16:35:00
10:55 AM,53.8,24.4,32,30.00,10.0,WSW,3.5,-,N/A,,Clear,240,2013-02-26 16:55:00
11:15 AM,55.4,24.4,30,29.99,10.0,West,5.8,-,N/A,,Clear,280,2013-02-26 17:15:00
11:35 AM,57.6,23.9,27,29.98,10.0,West,3.5,-,N/A,,Clear,270,2013-02-26 17:35:00
11:55 AM,57.7,23.2,26,29.97,10.0,West,4.6,-,N/A,,Clear,270,2013-02-26 17:55:00
12:15 PM,57.7,22.1,25,29.96,10.0,West,4.6,-,N/A,,Clear,260,2013-02-26 18:15:00
12:35 PM,59.0,22.1,24,29.95,10.0,SSW,6.9,-,N/A,,Clear,210,2013-02-26 18:35:00
12:55 PM,60.1,21.0,22,29.94,10.0,SW,8.1,-,N/A,,Clear,230,2013-02-26 18:55:00
1:15 PM,60.3,19.8,21,29.93,10.0,SW,8.1,-,N/A,,Clear,230,2013-02-26 19:15:00
1:35 PM,60.3,19.0,20,29.93,10.0,SW,9.2,-,N/A,,Clear,230,2013-02-26 19:35:00
1:55 PM,61.3,19.4,20,29.91,10.0,SW,10.4,-,N/A,,Clear,230,2013-02-26 19:55:00
2:15 PM,63.0,18.9,18,29.90,10.0,West,8.1,-,N/A,,Clear,260,2013-02-26 20:15:00
2:35 PM,63.5,18.9,18,29.89,10.0,SSW,9.2,-,N/A,,Clear,210,2013-02-26 20:35:00
2:55 PM,66.0,20.1,17,29.88,10.0,SW,8.1,-,N/A,,Clear,230,2013-02-26 20:55:00
3:15 PM,68.0,18.5,15,29.87,10.0,SSW,8.1,-,N/A,,Clear,210,2013-02-26 21:15:00
3:35 PM,68.0,16.5,14,29.87,10.0,WSW,8.1,-,N/A,,Clear,250,2013-02-26 21:35:00
3:55 PM,68.0,15.8,13,29.86,10.0,South,8.1,-,N/A,,Clear,190,2013-02-26 21:55:00
4:15 PM,68.0,14.9,13,29.86,10.0,SW,5.8,16.1,N/A,,Clear,220,2013-02-26 22:15:00
4:35 PM,68.0,14.0,12,29.85,10.0,SSW,6.9,-,N/A,,Clear,210,2013-02-26 22:35:00
4:55 PM,68.0,15.3,13,29.86,10.0,SSW,4.6,-,N/A,,Clear,210,2013-02-26 22:55:00
5:15 PM,68.0,14.7,13,29.86,10.0,SSE,3.5,-,N/A,,Clear,160,2013-02-26 23:15:00
5:35 PM,68.0,14.7,13,29.86,10.0,SSE,3.5,-,N/A,,Clear,160,2013-02-26 23:35:00
5:55 PM,65.3,13.8,14,29.86,10.0,SE,3.5,-,N/A,,Clear,140,2013-02-26 23:55:00
6:15 PM,65.1,15.1,14,29.86,10.0,SE,3.5,-,N/A,,Clear,130,2013-02-27 00:15:00
6:35 PM,62.8,14.9,16,29.86,10.0,SE,4.6,-,N/A,,Clear,130,2013-02-27 00:35:00
6:55 PM,60.4,15.3,17,29.87,10.0,SE,4.6,-,N/A,,Clear,130,2013-02-27 00:55:00
7:15 PM,59.0,16.9,19,29.86,10.0,ESE,5.8,-,N/A,,Clear,120,2013-02-27 01:15:00
7:35 PM,57.9,16.9,20,29.87,10.0,ESE,4.6,-,N/A,,Clear,120,2013-02-27 01:35:00
7:55 PM,57.4,18.5,22,29.88,10.0,ESE,3.5,-,N/A,,Clear,120,2013-02-27 01:55:00
8:15 PM,55.4,18.1,23,29.88,10.0,SE,4.6,-,N/A,,Clear,130,2013-02-27 02:15:00
8:35 PM,55.4,19.0,24,29.88,10.0,SE,4.6,-,N/A,,Clear,130,2013-02-27 02:35:00
8:55 PM,54.5,18.7,25,29.88,10.0,SE,4.6,-,N/A,,Clear,140,2013-02-27 02:55:00
9:15 PM,53.1,17.6,25,29.89,10.0,Calm,Calm,-,N/A,,Clear,0,2013-02-27 03:15:00
9:35 PM,52.7,17.2,25,29.89,10.0,East,4.6,-,N/A,,Clear,100,2013-02-27 03:35:00
9:55 PM,52.7,16.0,23,29.89,10.0,SE,5.8,-,N/A,,Clear,130,2013-02-27 03:55:00
10:15 PM,52.7,18.0,25,29.89,10.0,SE,4.6,-,N/A,,Clear,140,2013-02-27 04:15:00
10:35 PM,51.4,17.6,26,29.89,10.0,SSE,5.8,-,N/A,,Clear,150,2013-02-27 04:35:00
10:55 PM,51.6,17.8,26,29.88,10.0,Calm,Calm,-,N/A,,Clear,0,2013-02-27 04:55:00
11:15 PM,52.7,18.7,26,29.88,10.0,SSE,4.6,-,N/A,,Clear,150,2013-02-27 05:15:00
11:35 PM,52.7,18.3,26,29.88,10.0,SSE,3.5,-,N/A,,Clear,150,2013-02-27 05:35:00
11:55 PM,52.7,19.2,27,29.89,10.0,Calm,Calm,-,N/A,,Clear,0,2013-02-27 05:55:00